This is the latest recevied weather packets stored in our database for station/object KW6V-15. If no packets are shown the sender has not sent any weather packets the latest 10 day(s).
| Time | Temp. | Humidity | Pressure | Rain* | Wind** | Luminosity | Snow |
|---|---|---|---|---|---|---|---|
| 1788597025 | 9.44° C | 91% | 1016.1 hPa | 0 mm | - | - | - |
| 1788595242 | 10° C | 91% | 1016.1 hPa | 0 mm | - | - | - |
| 1788593442 | 10.56° C | 91% | 1016.1 hPa | 0 mm | - | - | - |
| 1788591636 | 11.11° C | 91% | 1016 hPa | 0 mm | - | - | - |
| 1788589828 | 11.11° C | 91% | 1016 hPa | 0 mm | - | - | - |
| 1788588038 | 11.67° C | 91% | 1016 hPa | 0 mm | - | - | - |
| 1788586235 | 11.11° C | 90% | 1016.1 hPa | 0 mm | - | - | - |
| 1788584432 | 11.67° C | 90% | 1016.2 hPa | 0 mm | - | - | - |
| 1788582635 | 12.22° C | 89% | 1016 hPa | 0 mm | - | - | - |
| 1788580847 | 13.33° C | 89% | 1015.7 hPa | 0 mm | - | - | - |
| 1788579026 | 14.44° C | 87% | 1015.4 hPa | 0 mm | - | - | - |
| 1788577237 | 15.56° C | 87% | 1015.3 hPa | 0 mm | - | - | - |
| 1788575420 | 16.11° C | 86% | 1015.2 hPa | 0 mm | - | - | - |
| 1788573623 | 16.67° C | 85% | 1015.3 hPa | 0 mm | - | - | - |
| 1788571831 | 17.22° C | 82% | 1015.4 hPa | 0 mm | - | - | - |
| 1788570036 | 17.78° C | 80% | 1015.3 hPa | 0 mm | - | - | - |
| 1788568219 | 19.44° C | 75% | 1015 hPa | 0 mm | - | - | - |
| 1788566434 | 20° C | 74% | 1014.8 hPa | 0 mm | - | - | - |
| 1788564632 | 21.67° C | 71% | 1014.7 hPa | 0 mm | - | - | - |
| 1788562817 | 21.11° C | 71% | 1014.8 hPa | 0 mm | - | - | - |
| 1788561029 | 21.11° C | 73% | 1014.9 hPa | 0 mm | - | - | - |
| 1788559223 | 21.11° C | 71% | 1015.1 hPa | 0 mm | - | - | - |
| 1788557457 | 21.11° C | 73% | 1015 hPa | 0 mm | - | - | - |
| 1788555624 | 20.56° C | 72% | 1015.2 hPa | 0 mm | - | - | - |
| 1788553851 | 20.56° C | 72% | 1014.9 hPa | 0 mm | - | - | - |
* Rain latest hour (hover to see other rain measurements)
** Current wind speed in m/s (hover to see current wind gust speed)